Weather observations for the past three days for
Pellston Regional Airport of Emmet County
Imperial (Metric)
Date Time (edt) Wind (mph) Vis. (mi.) Weather Sky Cond. Temperature (ºF) Relative Humidity Wind Chill (°F) Heat Index (°F) Pressure Precipitation (in)
Air Dwpt 6 hour altimeter (in) sea level (mb) 1 hr 3 hr 6 hr
Max. Min.
24 19:54 NW 10 10.00 Partly Cloudy SCT041 SCT049 70 57.9 73.9 69.1 66% 30.13 1020.0
24 18:54 NW 10 10.00 Fair CLR 72 57.9 61% 30.12 1019.8
24 17:54 NW 12 10.00 Fair CLR 73 57.9 59% 30.12 1019.7
24 16:54 NW 13 10.00 Partly Cloudy SCT031 73 57.9 59% 30.12 1019.6
24 15:54 NW 12 G 17 10.00 Mostly Cloudy FEW027 BKN037 BKN050 73 59 62% 30.11 1019.6
24 14:54 W 12 10.00 Mostly Cloudy SCT027 BKN041 BKN050 71.1 59 66% 30.11 1019.4
24 13:54 NW 9 10.00 Overcast FEW023 SCT030 OVC045 70 57.9 71.1 63 66% 30.11 1019.4
24 12:54 N 6 10.00 Overcast SCT016 BKN023 OVC043 69.1 59 70% 30.11 1019.5
24 11:54 N 6 10.00 Overcast BKN018 BKN022 OVC029 66 57.9 75% 30.1 1019.3
24 10:54 N 9 10.00 Overcast FEW010 OVC015 64 59 84% 30.1 1019.2
24 07:54 N 7 10.00 Overcast OVC008 63 60.1 63 63 90% 30.07 1018.1 0.02
24 06:54 N 6 10.00 Overcast OVC007 63 60.1 90% 30.06 1017.9
24 05:54 N 8 10.00 Overcast OVC006 63 60.1 90% 30.05 1017.4
24 04:54 N 7 10.00 Overcast OVC006 63 60.1 90% 30.03 1016.9 0.02
24 03:54 N 7 10.00 Overcast OVC006 63 61 93% 30.03 1016.7 0.01
24 02:54 N 7 7.00 Overcast OVC006 63 61 93% 30.02 1016.5 0.01
24 01:54 N 5 9.00 Light Rain FEW007 BKN075 OVC100 63 61 66 63 93% 30.03 1016.8 0.03 0.51
24 00:54 E 6 9.00 Light Rain BKN008 BKN016 OVC026 64 61 90% 30.04 1017.2 0.03
23 23:54 NE 7 10.00 Light Rain SCT006 BKN013 OVC026 64 62.1 93% 30.03 1016.9 0.06
23 22:54 NE 8 4.00 Rain Fog/Mist BKN007 BKN010 OVC014 64 62.1 93% 30.04 1017.1 0.16 0.39
23 21:54 E 7 4.00 Rain Fog/Mist FEW009 SCT038 OVC060 64.9 62.1 90% 30.05 1017.3 0.1
23 20:54 NE 5 3.00 Rain Fog/Mist SCT009 BKN041 OVC080 64 62.1 93% 30.03 1016.8 0.13
23 19:54 NE 9 5.00 Light Rain Fog/Mist FEW011 BKN018 OVC070 64.9 62.1 68 64.9 90% 30.02 1016.6 0.03 0.14
23 18:54 NE 8 10.00 Overcast BKN011 OVC016 66 63 90% 30.03 1016.8
23 17:54 NE 9 10.00 Light Rain FEW008 FEW070 OVC100 66.9 64 91% 30.01 1016.4 0.04
23 16:54 NE 5 5.00 Light Rain Fog/Mist SCT015 BKN065 OVC080 66 63 90% 30.04 1017.2 0.06 0.07
23 15:54 E 8 10.00 Light Rain BKN013 BKN019 OVC095 66 62.1 87% 30.05 1017.4 0.01
23 14:54 NE 7 10.00 Overcast OVC007 66.9 63 87% 30.03 1017.1
23 13:54 Vrbl 7 10.00 Light Rain SCT080 OVC095 64.9 61 66.9 61 87% 30.05 1017.5 0.01 0.12
23 12:54 NE 8 9.00 Light Rain SCT080 OVC100 64.9 61 87% 30.06 1017.8 0.06
23 11:54 N 8 6.00 Light Rain Fog/Mist OVC095 66 63 90% 30.05 1017.7 0.04
23 10:54 Calm 10.00 Light Rain OVC100 66 61 84% 30.05 1017.4 0.01 0.01
23 09:54 NW 5 10.00 Overcast FEW044 OVC090 64.9 59 81% 30.05 1017.5
23 08:54 NW 3 10.00 Overcast FEW090 OVC110 63 57.9 84% 30.03 1016.6
23 07:54 Calm 10.00 Fair CLR 61 57 61 53.1 87% 30.02 1016.2
23 06:54 Calm 10.00 Mostly Cloudy BKN110 57 55 93% 30 1015.8
23 05:54 Calm 10.00 Fair CLR 55.9 53.1 90% 29.99 1015.4
23 04:54 Calm 10.00 Fair CLR 54 52 93% 29.99 1015.4
23 03:54 Calm 10.00 Fair CLR 54 51.1 90% 29.99 1015.3
23 02:54 Calm 4.00 Fog/Mist CLR 54 52 93% 29.99 1015.4
23 01:54 Calm 6.00 Fog/Mist CLR 55 54 77 55 96% 30 1015.6
23 00:54 Calm 10.00 Fair CLR 57 55 93% 30.01 1015.9
22 23:54 Calm 9.00 Fair CLR 57.9 55.9 93% 30 1015.8
22 22:54 Calm 10.00 Fair CLR 61 57.9 90% 30 1015.6
22 21:54 Calm 10.00 Fair CLR 64.9 59 81% 30 1015.7
22 20:54 E 5 10.00 Fair CLR 73 59 62% 29.99 1015.3
22 19:54 E 6 10.00 Fair CLR 77 59 82 77 54% 79 29.98 1015.0
22 18:54 E 7 10.00 Fair CLR 78.1 57.9 50% 79 29.97 1014.8
22 17:54 NE 6 10.00 Mostly Cloudy BKN055 80.1 55.9 44% 80 29.98 1015.0
22 16:54 NE 5 10.00 Mostly Cloudy SCT050 BKN060 81 57 44% 81 29.99 1015.4
22 15:54 N 8 10.00 Mostly Cloudy BKN050 81 57.9 45% 81 30 1015.9
22 14:54 NE 6 10.00 Mostly Cloudy BKN050 BKN060 80.1 57.9 47% 81 30.01 1016.2
22 13:54 Calm 10.00 A Few Clouds FEW041 FEW050 79 57.9 80.1 55.9 49% 80 30.02 1016.6
22 12:54 SE 6 10.00 A Few Clouds FEW050 78.1 60.1 54% 79 30.04 1017.2
22 11:54 E 3 10.00 Fair CLR 75.9 59 56% 78 30.06 1017.9
22 10:54 SE 3 10.00 Mostly Cloudy BKN031 BKN040 72 57.9 61% 30.07 1018.0
22 09:54 Calm 10.00 Fair CLR 69.1 55.9 63% 30.07 1018.2
22 08:54 Calm 10.00 Mostly Cloudy BKN041 62.1 55.9 80% 30.08 1018.4
22 07:54 Calm 10.00 Partly Cloudy SCT037 55 52 55 48 90% 30.08 1018.6
22 06:54 Calm 10.00 Fair CLR 50 48 93% 30.07 1018.2
22 05:54 Calm 7.00 Fair CLR 50 48 93% 30.07 1018.1
22 04:54 Calm 10.00 Fair CLR 50 48 93% 30.08 1018.7
22 03:54 Calm 10.00 Fair CLR 51.1 48.9 92% 30.1 1019.1
22 02:54 Calm 10.00 Mostly Cloudy BKN055 52 50 93% 30.11 1019.5
22 01:54 Calm 10.00 Fair CLR 52 50 77 51.1 93% 30.12 1020.0
22 00:54 Calm 10.00 Fair CLR 52 51.1 97% 30.13 1020.3
21 23:54 Calm 10.00 Fair CLR 54 51.1 90% 30.13 1020.3
21 22:54 Calm 10.00 Fair CLR 57.9 52 81% 30.12 1019.9
21 21:54 Calm 10.00 Fair CLR 57.9 52 81% 30.12 1019.8
21 20:54 Calm 10.00 Fair CLR 70 50 49% 30.1 1019.3
Date Time (edt) Wind (mph) Vis. (mi.) Weather Sky Cond. Air Dwpt Max. Min. Relative Humidity Wind Chill (°F) Heat Index (°F) altimeter (in) sea level (mb) 1 hr 3 hr 6 hr
6 hour
Temperature (ºF) Pressure Precipitation (in)